Regional Weather Roundup
Issued by NWS New Orleans/Baton Rouge, LA

Home | Current Version | Previous Version | Text Only | Print | Product List | Glossary Off
Versions: 1 2 3 4 5 6 7 8 9 10 11 12 13 14 15 16 17 18 19 20 21 22 23 24 25 26 27 28 29 30 31 32 33 34 35 36 37 38 39 40 41 42 43 44 45 46 47 48 49 50

736
ASUS44 KLIX 020510
RWRLIX
NEW ORLEANS REGIONAL WEATHER ROUNDUP
NATIONAL WEATHER SERVICE NEW ORLEANS LA
1200 AM CDT SAT AUG 02 2014

NOTE: "FAIR" INDICATES FEW OR NO CLOUDS BELOW 12,000 FEET WITH NO
      SIGNIFICANT WEATHER AND/OR OBSTRUCTIONS TO VISIBILITY.
      SKY/WX - SKY CONDITION AND SIGNIFICANT WEATHER.
      TMP - AIR TEMPERATURE.     DP    - DEWPOINT TEMPERATURE.
      RH  - RELATIVE HUMIDITY.   PRES  - PRESSURE.
      HI  - HEAT INDEX.          WCI   - WIND CHILL INDEX.

*  THESE STATIONS ARE NOT NWS OR FAA STATIONS AND ARE NOT UNDER
   NWS QUALITY CONTROL.

LAZ038-040-048-061>063-065>067-069-020600-
SOUTHEAST LOUISIANA

CITY           SKY/WX    TMP DP  RH WIND       PRES   REMARKS
N.O. AUDUBON     N/A     81  73  76 MISG        N/A
N.O. INTL ARPT MOCLDY    80  68  66 SE6       29.99R
N.O. LAKEFRONT CLOUDY    80  71  74 SE7       29.99S
N.O. DOWNTOWN* MOCLDY    81  66  61 SE5       30.00R
SLIDELL        CLEAR     72  69  90 E3        29.99S
BATON ROUGE    CLOUDY    77  74  90 E7        29.97S
BOOTHVILLE     CLEAR     78  72  81 SE3       29.99F
BELLE CHASSE   CLEAR     79  70  74 SE5       29.98S
BOGALUSA*      CLOUDY    76  71  84 CALM      30.01F
GALLIANO*      NOT AVBL
NEW ROADS*     MOCLDY    76  74  95 CALM      29.97S FOG
GONZALES*      MOCLDY    75  75 100 CALM      29.97S
HAMMOND*       CLEAR     75  68  78 E5        30.00S
HOUMA*         CLOUDY    76  69  79 CALM      29.98R
PORT FOURCHON* CLEAR     82  70  65 SE7       30.00S

$$

MSZ070-080>082-020600-
SOUTHERN MISSISSIPPI

CITY           SKY/WX    TMP DP  RH WIND       PRES   REMARKS
MCCOMB         PTCLDY    73  71  93 CALM      30.00S FOG
GULFPORT       CLOUDY    77  70  79 CALM      29.99S
BILOXI         CLEAR     74  68  81 NE5       30.00R
PASCAGOULA     CLEAR     70  69  97 CALM      30.00S

$$

COASTAL OBSERVATIONS
LAKE AND NEARSHORE STATIONS

STATION/POSITION TIME  TEMP    WIND        PRES    WAVE
                       AIR SEA DIR/SP/G            HT/PER
                 (UTC) (F)     (DEG/KT/KT) (MB)    (FT/S)
PASCAGOULA       0500   76     340/  5/  5 1015.3
WAVELAND YACHT   0500   80     130/  5/  6 1015.0
GRAND ISLE       0500   82 86  140/  6/  8 1016.1
SOUTHWEST PASS   0500   82 85  110/  8/ 10 1015.8
NEW CANAL        0500   81 82  130/  3/  7 1015.9
SHELL BEACH      0500   80 81  110/  6/  8 1015.4

OFFSHORE STATIONS

STATION/POSITION TIME  TEMP    WIND        PRES    WAVE
                       AIR SEA DIR/SP/G            HT/PER
                 (UTC) (F)     (DEG/KT/KT) (MB)    (FT/S)
64 S DAUPHIN ISL 0412   83 84  100/  2/  4 1015.7

$$




USA.gov is the U.S. government's official web portal to all federal, state and local government web resources and services.